Temp
-3 -4 -4 -4 -4 -5 -5 -6 -7 -6 -3 -1 -2 -3 -4 -3 -2 -2 -3 -2 -2 -2 -2 -2 -2 -1 -2 -3 -2 -2 -1 -1 -1 -1 -1 -1 -1 -1
-4 -5 -5 -5 -5 -6 -6 -7 -8 -9 -9 -3 -3 -4 -4 -3 -3 -3 -3 -2 -2 -2 -2 -2 -2 -2 -2 -2 -3 -2 -2 -2 -1 -1 -1 -1 -1 -1
-5 -5 -5 -6 -6 -7 -7 -8 -8 -9 -10 -5 -6 -5 -4 -4 -4 -3 -3 -3 -2 -2 -2 -2 -3 -3 -2 -2 -2 -2 -2 -2 -2 -2 -1 -1 -1 -1
-6 -7 -7 -8 -8 -9 -9 -9 -10 -10 -10 -10 -7 -6 -6 -6 -5 -4 -4 -3 -3 -2 -3 -3 -3 -3 -3 -3 -3 -2 -2 -2 -2 -2 -2 -2 -0 -1
-8 -9 -9 -10 -10 -11 -11 -11 -11 -11 -12 -13 -11 -10 -9 -9 -8 -7 -5 -4 -4 -4 -4 -4 -4 -4 -4 -4 -3 -3 -3 -3 -2 -2 -2 -2 -1 -1
-10 -10 -11 -11 -12 -12 -12 -12 -13 -13 -13 -13 -13 -12 -12 -11 -11 -10 -8 -7 -6 -6 -6 -6 -6 -6 -6 -5 -4 -4 -3 -3 -3 -3 -2 -2 -1 -1
-10 -11 -11 -12 -12 -13 -14 -13 -14 -14 -14 -14 -14 -13 -13 -12 -12 -11 -11 -10 -9 -9 -9 -8 -8 -7 -7 -6 -5 -4 -4 -3 -3 -3 -3 -2 -2 -1
-11 -11 -12 -13 -13 -14 -14 -14 -15 -15 -15 -16 -15 -15 -14 -13 -13 -13 -12 -13 -13 -12 -11 -10 -10 -9 -7 -7 -6 -5 -4 -3 -3 -3 -3 -3 -2 -2
-12 -13 -13 -14 -14 -14 -14 -15 -15 -15 -15 -15 -15 -15 -14 -14 -14 -13 -13 -13 -13 -12 -12 -11 -11 -10 -8 -7 -6 -5 -4 -4 -3 -3 -3 -3 -2 -3
-13 -14 -14 -14 -15 -15 -15 -16 -15 -15 -14 -14 -15 -15 -14 -14 -14 -15 -15 -14 -13 -12 -12 -12 -10 -9 -8 -7 -6 -5 -4 -4 -4 -3 -4 -4 -3 -3
-14 -14 -14 -15 -15 -15 -17 -17 -15 -14 -14 -14 -14 -15 -14 -14 -14 -14 -13 -13 -12 -11 -11 -11 -10 -10 -9 -7 -6 -5 -5 -5 -4 -4 -4 -3 -3 -3
-14 -14 -15 -15 -15 -17 -17 -16 -15 -15 -14 -14 -14 -14 -14 -14 -14 -13 -13 -13 -12 -11 -11 -11 -10 -11 -10 -7 -6 -6 -6 -5 -4 -4 -3 -3 -3 -3
-15 -15 -15 -15 -17 -16 -16 -16 -16 -15 -15 -15 -14 -14 -14 -13 -13 -13 -12 -13 -12 -11 -11 -11 -10 -10 -10 -8 -7 -7 -7 -6 -6 -5 -4 -4 -3 -3
-15 -15 -15 -16 -15 -16 -15 -16 -16 -16 -15 -15 -14 -14 -13 -13 -12 -12 -13 -13 -12 -12 -11 -11 -10 -9 -9 -8 -7 -7 -7 -6 -5 -5 -5 -4 -4 -5
-16 -16 -16 -16 -16 -15 -16 -16 -16 -16 -15 -14 -14 -13 -13 -12 -13 -13 -13 -12 -12 -12 -11 -10 -10 -9 -8 -8 -7 -7 -7 -6 -6 -6 -6 -6 -6 -6
-16 -16 -16 -16 -16 -16 -16 -15 -15 -15 -15 -15 -14 -13 -13 -14 -14 -14 -13 -12 -12 -12 -11 -11 -10 -9 -9 -8 -8 -7 -7 -8 -8 -8 -8 -8 -8 -8
-17 -16 -16 -16 -15 -15 -15 -15 -15 -15 -14 -14 -14 -15 -15 -14 -14 -13 -13 -12 -12 -11 -11 -11 -11 -10 -9 -9 -9 -8 -8 -9 -9 -9 -9 -9 -9 -9
-17 -17 -17 -16 -16 -16 -15 -15 -15 -15 -15 -15 -15 -15 -15 -14 -14 -14 -13 -12 -12 -11 -11 -11 -11 -10 -9 -9 -9 -9 -10 -10 -10 -10 -10 -10 -10 -10
-18 -18 -17 -17 -16 -16 -16 -15 -15 -15 -15 -15 -15 -15 -14 -14 -14 -13 -13 -12 -12 -12 -12 -11 -11 -10 -10 -9 -10 -11 -11 -11 -11 -11 -11 -11 -10 -10
-18 -18 -17 -17 -16 -16 -15 -15 -15 -15 -15 -15 -15 -14 -14 -14 -13 -13 -12 -12 -12 -12 -12 -11 -11 -10 -10 -10 -10 -10 -10 -11 -11 -11 -11 -11 -12 -12
-18 -17 -17 -16 -16 -15 -16 -15 -15 -15 -15 -14 -14 -14 -14 -13 -12 -12 -13 -13 -13 -12 -11 -11 -10 -10 -10 -10 -10 -10 -10 -10 -11 -11 -11 -11 -11 -10
-18 -17 -17 -16 -16 -15 -15 -15 -15 -14 -14 -13 -14 -14 -14 -13 -13 -12 -12 -12 -12 -11 -11 -11 -11 -11 -11 -11 -11 -11 -11 -11 -11 -11 -11 -11 -11 -11
-18 -17 -16 -16 -15 -15 -15 -15 -14 -14 -13 -13 -13 -13 -12 -12 -12 -12 -12 -11 -11 -11 -11 -11 -10 -10 -10 -10 -11 -11 -11 -11 -11 -12 -12 -12 -12 -12
Height
2971 2964 2958 2951 2943 2936 2928 2919 2907 2895 2894 2902 2890 2889 2884 2881 2878 2876 2874 2873 2872 2872 2871 2870 2870 2871 2871 2872 2870 2869 2872 2877 2883 2883 2886 2890 2895 2902
2958 2951 2944 2937 2930 2922 2913 2906 2898 2886 2875 2885 2880 2872 2868 2866 2862 2859 2857 2856 2855 2855 2853 2853 2853 2853 2852 2855 2856 2858 2858 2862 2860 2862 2869 2874 2879 2884
2945 2937 2930 2922 2914 2906 2898 2890 2882 2873 2861 2863 2858 2857 2850 2846 2844 2842 2840 2838 2837 2836 2836 2835 2835 2836 2837 2837 2839 2842 2844 2845 2848 2850 2854 2858 2863 2868
2929 2920 2912 2904 2897 2889 2882 2874 2864 2858 2847 2838 2839 2836 2831 2827 2823 2821 2819 2819 2818 2817 2815 2815 2816 2819 2821 2821 2824 2825 2826 2831 2833 2836 2840 2845 2846 2852
2913 2906 2897 2888 2881 2873 2866 2858 2851 2843 2835 2826 2818 2818 2813 2809 2803 2801 2799 2798 2798 2796 2794 2795 2797 2799 2803 2805 2807 2809 2812 2814 2818 2820 2824 2827 2833 2835
2902 2893 2884 2876 2867 2859 2852 2844 2836 2828 2822 2814 2808 2803 2798 2794 2787 2782 2778 2779 2777 2776 2775 2775 2776 2779 2783 2787 2790 2793 2796 2799 2802 2805 2810 2814 2817 2821
2890 2880 2871 2863 2855 2847 2838 2831 2824 2816 2809 2802 2794 2788 2782 2778 2774 2769 2762 2759 2759 2758 2755 2757 2757 2760 2764 2769 2773 2778 2780 2784 2788 2791 2795 2800 2803 2807
2874 2867 2858 2850 2843 2836 2829 2822 2815 2806 2799 2792 2783 2775 2769 2765 2761 2755 2749 2745 2740 2747 2741 2738 2741 2741 2746 2752 2758 2762 2765 2768 2772 2775 2780 2785 2790 2794
2862 2853 2846 2838 2830 2822 2816 2808 2802 2798 2792 2781 2771 2765 2757 2755 2749 2742 2738 2734 2730 2731 2729 2722 2728 2726 2732 2736 2743 2747 2751 2754 2757 2761 2765 2771 2776 2779
2852 2843 2836 2828 2820 2812 2804 2796 2792 2787 2780 2771 2762 2754 2749 2744 2739 2733 2728 2723 2720 2720 2719 2710 2715 2713 2717 2720 2728 2733 2737 2740 2744 2749 2753 2759 2763 2767
2842 2835 2828 2820 2812 2805 2796 2787 2780 2774 2767 2760 2753 2746 2740 2735 2730 2724 2719 2714 2708 2707 2706 2701 2703 2701 2703 2707 2714 2719 2723 2728 2732 2737 2741 2746 2752 2757
2832 2826 2819 2811 2803 2795 2786 2776 2767 2761 2753 2747 2743 2737 2731 2726 2721 2716 2710 2702 2696 2690 2692 2692 2691 2692 2692 2696 2701 2706 2711 2715 2719 2724 2730 2735 2741 2748
2822 2815 2809 2801 2794 2786 2777 2768 2759 2751 2744 2737 2730 2726 2721 2716 2711 2705 2699 2691 2685 2680 2683 2680 2679 2683 2684 2686 2691 2696 2700 2705 2710 2715 2720 2726 2734 2738
2815 2806 2799 2792 2784 2776 2768 2761 2753 2744 2736 2729 2723 2717 2710 2704 2697 2691 2685 2680 2676 2671 2671 2671 2668 2672 2674 2678 2682 2687 2691 2695 2702 2707 2710 2718 2725 2732
2807 2798 2791 2782 2775 2768 2761 2753 2746 2738 2729 2721 2714 2707 2699 2692 2685 2678 2674 2670 2667 2665 2663 2662 2661 2662 2664 2668 2673 2679 2684 2688 2694 2699 2705 2712 2719 2726
2797 2790 2782 2774 2767 2760 2753 2747 2739 2731 2722 2713 2705 2697 2688 2681 2674 2669 2665 2662 2660 2658 2656 2655 2654 2654 2656 2660 2665 2671 2677 2683 2689 2695 2701 2709 2714 2720
2788 2781 2773 2765 2759 2753 2747 2740 2733 2725 2716 2706 2696 2687 2680 2673 2668 2664 2661 2659 2657 2656 2654 2652 2650 2649 2652 2655 2660 2665 2671 2678 2687 2693 2699 2705 2711 2716
2782 2773 2766 2759 2752 2746 2739 2733 2727 2718 2708 2699 2690 2683 2675 2669 2665 2662 2660 2659 2657 2656 2655 2653 2652 2652 2653 2655 2658 2663 2669 2677 2685 2691 2697 2702 2708 2714
2777 2768 2761 2754 2747 2742 2735 2728 2719 2711 2703 2695 2688 2681 2675 2670 2667 2665 2663 2661 2659 2659 2659 2659 2658 2657 2659 2658 2660 2665 2672 2677 2684 2690 2697 2703 2710 2715
2771 2763 2756 2750 2744 2738 2732 2725 2716 2708 2701 2694 2689 2683 2677 2674 2671 2669 2668 2666 2665 2665 2666 2666 2667 2667 2667 2670 2671 2673 2677 2683 2689 2694 2699 2704 2709 2714
2766 2759 2753 2747 2742 2736 2729 2721 2713 2707 2701 2697 2692 2687 2683 2681 2678 2675 2673 2672 2672 2672 2672 2672 2672 2673 2673 2675 2677 2679 2683 2686 2691 2696 2701 2706 2711 2716
2761 2755 2751 2746 2740 2734 2727 2719 2713 2709 2705 2701 2697 2693 2690 2687 2684 2682 2680 2678 2677 2676 2676 2675 2675 2676 2677 2679 2680 2683 2686 2689 2693 2697 2700 2705 2710 2714
2758 2753 2749 2745 2739 2732 2725 2719 2715 2712 2709 2706 2702 2698 2695 2692 2689 2686 2684 2682 2681 2680 2679 2679 2679 2679 2680 2681 2682 2684 2687 2690 2694 2697 2700 2704 2708 2713
Wind_Speed
49 50 51 52 53 54 55 55 55 61 64 55 59 56 55 53 52 51 50 49 49 50 52 53 54 58 59 56 58 55 55 70 67 74 65 67 50 49
53 54 55 55 55 55 55 55 54 54 59 58 58 59 59 57 55 53 52 50 50 49 50 51 52 54 53 53 52 54 50 54 51 50 58 57 60 49
58 59 58 57 56 56 56 57 57 57 58 62 60 60 61 61 59 58 56 56 54 54 52 51 52 51 52 52 51 52 55 56 52 49 47 55 55 56
61 61 60 59 58 57 58 58 59 60 61 64 63 62 62 62 63 62 60 59 59 58 57 57 53 52 50 47 49 50 50 54 53 52 49 48 48 60
60 59 58 57 55 54 54 55 56 57 58 58 62 61 62 62 63 62 61 62 60 61 62 60 56 52 50 48 46 48 48 48 50 51 49 48 50 52
57 56 54 53 53 53 53 53 54 55 55 57 59 59 59 58 57 58 59 57 60 60 60 60 56 51 48 48 46 44 47 46 47 48 48 48 50 49
56 54 54 52 50 47 47 48 48 49 49 49 51 52 53 53 52 51 53 53 52 50 51 51 48 45 47 45 45 45 45 45 47 49 49 47 49 47
57 55 53 50 45 42 42 42 41 42 43 42 46 50 50 48 47 47 47 43 41 33 37 40 34 36 38 39 38 40 43 45 45 44 46 46 46 45
55 51 47 43 42 43 43 43 42 42 43 45 46 46 49 43 41 40 39 38 40 36 36 42 33 34 29 32 33 34 37 40 44 45 44 46 44 41
47 44 42 43 44 44 44 41 42 43 40 40 43 44 41 38 36 36 37 39 40 38 39 45 35 32 25 29 29 30 34 39 41 45 46 46 44 41
43 42 42 43 43 43 37 44 44 39 39 38 38 36 34 32 32 34 37 41 44 41 39 42 31 29 23 21 22 26 30 34 36 40 43 43 43 38
45 44 43 42 42 37 44 44 44 41 40 38 33 31 31 31 32 35 38 41 41 41 34 32 28 27 27 20 18 20 25 29 32 35 38 39 41 33
46 46 45 44 39 43 40 40 40 41 41 39 38 36 33 33 35 36 41 38 36 36 29 30 30 26 28 27 22 17 19 24 25 25 30 32 33 27
47 47 46 43 41 39 37 35 36 38 39 39 38 36 36 38 40 42 37 33 30 31 27 25 29 27 28 25 21 18 15 16 20 18 26 23 25 21
47 47 45 43 40 35 32 32 34 35 36 36 37 40 42 44 41 35 30 26 24 22 22 22 24 25 25 23 22 20 17 17 16 16 17 17 21 31
49 47 44 40 34 32 30 29 31 33 36 39 42 44 42 37 32 28 22 17 15 14 15 14 16 19 20 20 18 20 19 19 17 20 17 19 23 24
48 45 40 36 31 28 28 30 31 33 38 41 41 37 34 30 23 16 13 11 9 6 5 8 4 2 8 12 14 17 19 18 21 27 26 23 21 20
44 41 37 32 30 30 31 32 32 38 39 35 31 30 27 21 16 12 9 7 5 7 8 9 11 11 7 9 16 17 19 20 26 26 23 21 22 27
38 36 32 29 28 30 32 34 40 38 31 27 26 24 19 16 14 10 9 12 15 15 15 15 17 21 18 20 25 26 20 22 23 23 21 21 24 26
34 32 28 27 28 30 32 37 37 29 25 24 21 18 18 16 14 15 19 22 25 24 20 17 16 16 19 17 19 22 24 23 22 23 23 24 23 24
31 28 26 26 28 30 34 37 27 24 23 19 16 16 17 18 19 21 21 17 14 13 13 13 12 13 14 14 14 15 17 19 22 20 19 20 19 19
29 26 24 25 28 30 36 26 21 19 16 15 18 19 17 14 13 12 12 12 11 11 10 10 9 9 10 10 12 12 13 15 15 16 19 19 19 19
27 24 23 25 27 33 27 20 18 17 16 17 14 14 13 13 12 13 13 12 11 10 9 9 9 8 7 7 8 9 10 11 12 14 15 15 15 16
Wind_Direction
305 304 303 302 301 300 299 298 298 296 291 290 290 288 287 283 281 278 276 274 273 271 270 269 267 265 267 268 268 266 266 251 255 253 247 255 244 243
307 306 305 304 302 300 299 297 296 295 293 290 287 289 287 284 282 281 278 277 276 274 272 270 269 269 268 267 262 259 260 264 261 255 252 245 253 238
309 307 306 305 302 300 298 297 296 296 296 290 289 286 285 284 281 279 279 279 278 278 276 272 269 266 265 265 261 257 257 259 262 264 253 254 246 245
311 310 309 307 305 303 300 298 298 298 299 297 290 287 286 284 282 280 278 276 276 275 274 274 272 269 264 262 262 260 256 255 256 258 258 264 254 251
314 314 313 311 308 306 303 301 299 298 297 298 295 291 289 288 286 281 278 275 274 275 275 273 272 269 263 260 257 256 255 253 253 253 253 253 259 262
317 316 314 311 310 308 306 304 303 302 302 301 301 301 296 292 293 291 285 282 277 276 274 274 273 266 261 256 253 251 251 252 251 250 251 251 252 255
317 315 314 312 310 309 307 305 305 304 303 302 300 297 296 294 294 294 291 288 282 284 281 276 276 268 258 253 250 250 249 250 250 249 248 249 248 251
317 316 315 313 312 310 308 308 307 306 305 304 302 301 299 299 298 295 292 293 296 290 290 281 278 269 257 249 244 243 245 246 247 249 244 242 246 246
318 316 317 318 317 315 316 314 311 315 314 307 302 299 301 306 302 298 296 294 292 298 293 290 286 275 257 243 237 236 237 239 241 243 246 241 244 242
319 318 321 319 320 321 319 316 315 314 310 303 302 305 304 305 299 295 294 295 294 295 290 286 287 278 259 243 233 233 235 237 238 237 241 239 239 244
319 322 323 322 320 321 318 310 314 313 309 308 306 304 303 300 297 297 295 294 294 293 287 286 283 283 277 254 236 232 236 239 240 234 236 238 236 243
321 326 323 322 323 322 317 317 316 317 315 314 311 306 307 305 302 296 299 301 298 294 289 284 278 276 274 262 244 236 235 237 235 234 230 235 237 232
325 324 326 327 325 321 319 318 316 318 318 315 315 316 313 308 304 301 302 301 295 290 294 284 279 274 264 270 274 263 248 219 227 231 225 221 225 223
325 324 327 326 322 321 321 320 317 317 317 316 315 315 313 312 310 308 305 300 292 290 290 281 278 274 270 266 262 256 244 221 213 227 222 216 219 226
325 327 328 325 323 323 322 320 320 318 318 317 317 318 317 315 312 308 305 296 290 286 283 280 276 271 266 257 254 240 237 240 229 225 228 218 222 217
326 328 326 323 324 324 323 325 325 324 323 322 321 320 319 318 317 311 305 303 298 296 297 288 273 265 252 245 235 224 219 214 223 226 222 212 214 212
325 327 327 328 328 329 330 331 330 328 328 327 325 326 328 326 323 323 327 324 322 312 349 11 21 228 211 202 196 198 198 192 212 213 206 206 208 207
328 328 330 331 333 335 336 335 335 335 333 333 336 336 338 343 357 3 359 1 31 52 54 56 72 68 95 173 172 169 165 191 203 202 207 200 186 174
328 330 332 335 336 339 338 339 340 340 341 346 348 350 359 17 21 27 56 73 73 77 83 85 102 102 80 106 122 123 133 156 172 171 173 175 171 170
331 334 336 337 340 341 341 342 344 348 356 1 5 17 32 41 58 76 84 80 70 67 68 74 79 86 96 96 107 122 132 136 147 155 164 170 172 176
335 337 339 341 344 343 344 347 353 1 7 14 30 52 63 71 71 67 62 65 68 67 72 79 88 96 104 113 122 132 140 149 155 163 172 177 181 183
337 338 345 346 346 346 347 357 9 19 29 43 46 41 37 41 43 46 49 52 55 61 67 73 81 92 105 119 131 142 152 159 166 175 179 183 189 189
336 343 350 351 349 347 356 15 28 35 35 18 23 32 30 34 39 42 41 42 46 52 61 72 78 84 102 119 136 149 159 167 174 180 185 189 190 189